Rothschild, WI

8:41 AM CDT on July 26, 2016 (GMT -0500)
Wausau Downtown

Weather History for KAUW - March, 2013

Change the Weather History Date:

Tuesday, March 5, 2013

  Actual Average Record
Temperature  
Mean Temperature 27 °F 25 °F  
Max Temperature 30 °F 35 °F 61 °F (2000)
Min Temperature 23 °F 16 °F -24 °F (1917)
Degree Days  
Heating Degree Days 38 40  
Month to date heating degree days 226 202  
Since 1 July heating degree days 6050 6338  
Cooling Degree Days 0 0  
Month to date cooling degree days 0 0  
Year to date cooling degree days 0 0  
Moisture  
Dew Point 17 °F    
Average Humidity 68    
Maximum Humidity 81    
Minimum Humidity 55    
Precipitation  
Precipitation T in 0.05 in 0.78 in (1945)
Month to date precipitation T 0.24  
Year to date precipitation 3.15 2.18  
Snow  
Snow 0.10 in 0.40 in 11.10 in (1959)
Month to date snowfall 0.1 2.0  
Since 1 July snowfall 56.1 47.3  
Snow Depth 13.00 in    
Sea Level Pressure  
Sea Level Pressure 30.06 in    
Wind  
Wind Speed 9 mph (NNE)    
Max Wind Speed 18 mph    
Max Gust Speed 23 mph    
Visibility 8 miles    
Events Snow    
T = Trace of Precipitation, MM = Missing Value Source: NWS Daily Summary

Daily Weather History Graph

Daily Weather History Graph

Search for Another Location

Airport or City:

Trip Planner

Search our weather history database for the weather conditions in past years. The results will help you decide how hot, cold, wet, or windy it might be!

Date:

Astronomy

Mar. 05, 2013 Rise Set
Actual Time 6:28 AM CST 5:51 PM CST
Civil Twilight 5:59 AM CST 6:21 PM CST
Nautical Twilight 5:25 AM CST 6:55 PM CST
Astronomical Twilight 4:51 AM CST 7:29 PM CST
Moon 1:52 AM CST (3/5) 11:19 AM CST (3/5)
Length of Visible Light 12h 21m
Length of Day
11h 23m
Last Quarter, 40% of the Moon is Illuminated
Mar 5
Last Quarter
Mar 11
New
Mar 19
First Quarter
Mar 27
Full
Apr 2
Last Quarter

Hourly Weather History & Observations

Time (CST) Temp. Windchill Dew Point Humidity Pressure Visibility Wind Dir Wind Speed Gust Speed Precip Events Conditions
1:54 AM 24.1 °F 14.4 °F 12.0 °F 60% 30.11 in 10.0 mi East 9.2 mph - N/A   Overcast
2:54 AM 24.1 °F 12.0 °F 12.0 °F 60% 30.09 in 10.0 mi ENE 13.8 mph - N/A   Overcast
3:54 AM 23.0 °F 13.1 °F 12.0 °F 63% 30.06 in 10.0 mi ENE 9.2 mph - N/A   Overcast
4:54 AM 23.0 °F 9.6 °F 14.0 °F 68% 30.04 in 10.0 mi East 16.1 mph - N/A   Overcast
5:54 AM 23.0 °F 13.9 °F 15.1 °F 72% 30.04 in 10.0 mi East 8.1 mph - N/A   Overcast
7:54 AM 24.1 °F 15.2 °F 15.1 °F 69% 30.06 in 10.0 mi ENE 8.1 mph - N/A   Overcast
8:54 AM 25.0 °F 18.1 °F 16.0 °F 69% 30.07 in 10.0 mi Variable 5.8 mph - N/A   Overcast
9:54 AM 26.1 °F 16.2 °F 16.0 °F 66% 30.08 in 10.0 mi ENE 10.4 mph - N/A   Overcast
10:54 AM 27.0 °F 19.5 °F 17.1 °F 66% 30.06 in 10.0 mi NE 6.9 mph - N/A   Overcast
11:54 AM 28.0 °F 18.6 °F 16.0 °F 61% 30.04 in 10.0 mi ENE 10.4 mph - N/A   Overcast
12:54 PM 27.0 °F 15.6 °F 16.0 °F 63% 30.03 in 9.0 mi NE 13.8 mph - 0.00 in   Overcast
1:54 PM 27.0 °F 17.3 °F 19.0 °F 72% 30.02 in 2.5 mi NNE 10.4 mph - 0.00 in Snow Light Snow
2:12 PM 28.4 °F 18.5 °F 17.6 °F 64% 29.96 in 2.5 mi NNE 11.5 mph 18.4 mph 0.00 in Snow Light Snow
2:21 PM 28.4 °F 18.0 °F 17.6 °F 64% 29.96 in 6.0 mi NE 12.7 mph - 0.00 in Snow Light Snow
2:37 PM 28.4 °F 18.0 °F 17.6 °F 64% 29.97 in 2.0 mi ENE 12.7 mph 19.6 mph 0.00 in Snow Light Snow
2:49 PM 28.4 °F 22.2 °F 17.6 °F 64% 29.97 in 4.0 mi NNE 5.8 mph - 0.00 in Snow Light Snow
2:54 PM 28.9 °F 21.9 °F 18.0 °F 64% 30.03 in 5.0 mi North 6.9 mph - 0.00 in Snow Light Snow
3:05 PM 28.4 °F 19.7 °F 17.6 °F 64% 29.97 in 6.0 mi NNE 9.2 mph - 0.00 in Snow Light Snow
3:54 PM 28.9 °F 20.4 °F 17.1 °F 61% 30.05 in 10.0 mi North 9.2 mph - 0.00 in   Overcast
4:54 PM 28.9 °F 21.1 °F 18.0 °F 64% 30.08 in 7.0 mi North 8.1 mph - 0.00 in   Overcast
5:54 PM 28.9 °F 22.8 °F 16.0 °F 58% 30.09 in 10.0 mi North 5.8 mph - 0.00 in   Overcast
6:54 PM 28.0 °F 20.0 °F 21.0 °F 75% 30.11 in 10.0 mi North 8.1 mph - N/A   Overcast
7:41 PM 26.6 °F 16.2 °F 19.4 °F 74% 30.05 in 10.0 mi North 11.5 mph 17.3 mph N/A   Overcast
7:54 PM 27.0 °F 17.3 °F 19.0 °F 72% 30.12 in 10.0 mi North 10.4 mph 18.4 mph N/A   Overcast
8:54 PM 26.1 °F 16.8 °F 19.0 °F 75% 30.14 in 10.0 mi North 9.2 mph - N/A   Overcast
9:54 PM 26.1 °F 16.8 °F 19.0 °F 75% 30.16 in 10.0 mi North 9.2 mph - N/A   Overcast
10:54 PM 25.0 °F 16.3 °F 19.0 °F 78% 30.17 in 10.0 mi North 8.1 mph - N/A   Overcast
11:54 PM 25.0 °F 15.5 °F 19.0 °F 78% 30.19 in 10.0 mi North 9.2 mph - N/A   Overcast